Time,TemperatureF,DewpointF,PressureIn,WindDirection,WindDirectionDegrees,WindSpeedMPH,WindSpeedGustMPH,Humidity,HourlyPrecipIn,Conditions,Clouds,dailyrainin,SoftwareType,DateUTC
2013-02-24 02:32:00,34.0,33.0,-100.00,South,175,1.0,5.0,98,-99.99,,,-99.99,,2013-02-24 07:32:00,
2013-02-24 08:35:00,36.0,36.0,-100.00,ESE,115,2.0,5.0,99,-99.99,,,-99.99,,2013-02-24 13:35:00,
2013-02-24 11:42:00,36.0,36.0,-100.00,SSE,160,6.0,13.0,98,-99.99,,,-99.99,,2013-02-24 16:42:00,
2013-02-24 11:52:00,36.0,36.0,-100.00,SSE,150,5.0,9.0,98,-99.99,,,-99.99,,2013-02-24 16:52:00,
2013-02-24 12:01:00,36.0,35.0,-100.00,ESE,105,1.0,7.0,97,-99.99,,,-99.99,,2013-02-24 17:01:00,
2013-02-24 12:11:00,35.0,34.0,-100.00,SE,140,3.0,12.0,97,-99.99,,,-99.99,,2013-02-24 17:11:00,
2013-02-24 12:22:00,35.0,35.0,-100.00,SE,140,2.0,12.0,98,-99.99,,,-99.99,,2013-02-24 17:22:00,
2013-02-24 12:32:00,35.0,34.0,-100.00,SE,135,3.0,10.0,98,-99.99,,,-99.99,,2013-02-24 17:32:00,
2013-02-24 12:42:00,34.0,34.0,-100.00,SE,140,5.0,9.0,98,-99.99,,,-99.99,,2013-02-24 17:42:00,
2013-02-24 12:52:00,34.0,33.0,-100.00,SE,140,5.0,17.0,97,-99.99,,,-99.99,,2013-02-24 17:52:00,
2013-02-24 13:02:00,34.0,33.0,-100.00,ESE,115,2.0,13.0,97,-99.99,,,-99.99,,2013-02-24 18:02:00,
2013-02-24 13:11:00,34.0,33.0,-100.00,SE,140,2.0,8.0,97,-99.99,,,-99.99,,2013-02-24 18:11:00,
2013-02-24 13:22:00,34.0,33.0,-100.00,SE,145,5.0,12.0,97,-99.99,,,-99.99,,2013-02-24 18:22:00,
2013-02-24 13:32:00,33.0,33.0,-100.00,SSE,155,7.0,20.0,97,-99.99,,,-99.99,,2013-02-24 18:32:00,
2013-02-24 13:42:00,33.0,32.0,-100.00,SE,145,7.0,17.0,97,-99.99,,,-99.99,,2013-02-24 18:42:00,
2013-02-24 13:52:00,33.0,32.0,-100.00,SE,145,3.0,15.0,97,-99.99,,,-99.99,,2013-02-24 18:52:00,
2013-02-24 14:01:00,33.0,32.0,-100.00,SSE,150,3.0,9.0,98,-99.99,,,-99.99,,2013-02-24 19:01:00,
2013-02-24 14:12:00,33.0,32.0,-100.00,SSE,150,2.0,9.0,98,-99.99,,,-99.99,,2013-02-24 19:12:00,
2013-02-24 14:22:00,33.0,33.0,-100.00,SE,135,5.0,12.0,98,-99.99,,,-99.99,,2013-02-24 19:22:00,
2013-02-24 14:32:00,33.0,32.0,-100.00,SE,140,1.0,7.0,97,-99.99,,,-99.99,,2013-02-24 19:32:00,
2013-02-24 14:42:00,33.0,33.0,-100.00,SE,140,2.0,9.0,98,-99.99,,,-99.99,,2013-02-24 19:42:00,
2013-02-24 14:52:00,34.0,33.0,-100.00,South,175,2.0,10.0,98,-99.99,,,-99.99,,2013-02-24 19:52:00,
2013-02-24 15:02:00,34.0,34.0,-100.00,SE,135,3.0,8.0,98,-99.99,,,-99.99,,2013-02-24 20:02:00,
2013-02-24 15:11:00,35.0,34.0,-100.00,SSE,155,5.0,13.0,97,-99.99,,,-99.99,,2013-02-24 20:11:00,
2013-02-24 15:22:00,34.0,34.0,-100.00,SE,130,2.0,15.0,97,-99.99,,,-99.99,,2013-02-24 20:22:00,
2013-02-24 15:32:00,34.0,34.0,-100.00,SE,125,2.0,9.0,97,-99.99,,,-99.99,,2013-02-24 20:32:00,
2013-02-24 15:42:00,34.0,34.0,-100.00,SSE,150,2.0,10.0,97,-99.99,,,-99.99,,2013-02-24 20:42:00,
2013-02-24 15:52:00,34.0,34.0,-100.00,SE,140,3.0,12.0,97,-99.99,,,-99.99,,2013-02-24 20:52:00,
2013-02-24 16:02:00,34.0,33.0,-100.00,SE,135,3.0,10.0,97,-99.99,,,-99.99,,2013-02-24 21:02:00,
2013-02-24 16:11:00,34.0,33.0,-100.00,SE,145,2.0,6.0,97,-99.99,,,-99.99,,2013-02-24 21:11:00,
2013-02-24 16:21:00,34.0,33.0,-100.00,SE,130,3.0,8.0,97,-99.99,,,-99.99,,2013-02-24 21:21:00,
2013-02-24 16:30:00,33.0,32.0,-100.00,SE,145,2.0,6.0,97,-99.99,,,-99.99,,2013-02-24 21:30:00,
2013-02-24 16:32:00,34.0,33.0,-100.00,SSE,155,2.0,7.0,96,-99.99,,,-99.99,,2013-02-24 21:32:00,
2013-02-24 16:42:00,34.0,33.0,-100.00,SSE,155,2.0,9.0,97,-99.99,,,-99.99,,2013-02-24 21:42:00,
2013-02-24 16:52:00,33.0,33.0,-100.00,ESE,120,1.0,9.0,97,-99.99,,,-99.99,,2013-02-24 21:52:00,
2013-02-24 17:01:00,33.0,33.0,-100.00,ESE,120,1.0,9.0,97,-99.99,,,-99.99,,2013-02-24 22:01:00,
2013-02-24 17:11:00,33.0,32.0,-100.00,SE,145,2.0,6.0,97,-99.99,,,-99.99,,2013-02-24 22:11:00,
2013-02-24 17:22:00,33.0,32.0,-100.00,SE,145,2.0,6.0,97,-99.99,,,-99.99,,2013-02-24 22:22:00,
2013-02-24 17:42:00,33.0,32.0,-100.00,SE,140,2.0,6.0,97,-99.99,,,-99.99,,2013-02-24 22:42:00,
2013-02-24 17:52:00,33.0,32.0,-100.00,SE,145,2.0,9.0,96,-99.99,,,-99.99,,2013-02-24 22:52:00,
2013-02-24 18:02:00,33.0,32.0,-100.00,SE,135,2.0,12.0,97,-99.99,,,-99.99,,2013-02-24 23:02:00,
2013-02-24 18:11:00,33.0,32.0,-100.00,East,80,1.0,6.0,97,-99.99,,,-99.99,,2013-02-24 23:11:00,
2013-02-24 18:22:00,33.0,32.0,-100.00,SE,140,1.0,5.0,97,-99.99,,,-99.99,,2013-02-24 23:22:00,
2013-02-24 18:32:00,33.0,32.0,-100.00,SE,145,1.0,6.0,97,-99.99,,,-99.99,,2013-02-24 23:32:00,
2013-02-24 18:42:00,32.0,32.0,-100.00,SE,140,2.0,8.0,97,-99.99,,,-99.99,,2013-02-24 23:42:00,
2013-02-24 18:52:00,32.0,32.0,-100.00,SE,135,2.0,7.0,97,-99.99,,,-99.99,,2013-02-24 23:52:00,
2013-02-24 19:02:00,32.0,32.0,-100.00,ESE,115,5.0,9.0,97,-99.99,,,-99.99,,2013-02-25 00:02:00,
2013-02-24 19:11:00,32.0,31.0,-100.00,SE,140,1.0,6.0,97,-99.99,,,-99.99,,2013-02-25 00:11:00,
2013-02-24 19:22:00,32.0,31.0,-100.00,ESE,115,1.0,7.0,97,-99.99,,,-99.99,,2013-02-25 00:22:00,
2013-02-24 19:42:00,32.0,31.0,-100.00,SE,125,2.0,7.0,97,-99.99,,,-99.99,,2013-02-25 00:42:00,
2013-02-24 19:52:00,32.0,32.0,-100.00,ESE,120,2.0,10.0,98,-99.99,,,-99.99,,2013-02-25 00:52:00,
2013-02-24 20:01:00,32.0,31.0,-100.00,SE,135,1.0,6.0,97,-99.99,,,-99.99,,2013-02-25 01:01:00,
2013-02-24 20:11:00,32.0,31.0,-100.00,South,175,2.0,17.0,97,-99.99,,,-99.99,,2013-02-25 01:11:00,
2013-02-24 20:21:00,32.0,31.0,-100.00,SSE,160,6.0,25.0,97,-99.99,,,-99.99,,2013-02-25 01:21:00,
2013-02-24 20:32:00,32.0,31.0,-100.00,North,0,0.0,5.0,97,-99.99,,,-99.99,,2013-02-25 01:32:00,
2013-02-24 20:42:00,32.0,31.0,-100.00,South,180,1.0,9.0,97,-99.99,,,-99.99,,2013-02-25 01:42:00,
2013-02-24 20:52:00,32.0,31.0,-100.00,North,0,1.0,6.0,97,-99.99,,,-99.99,,2013-02-25 01:52:00,
2013-02-24 21:01:00,32.0,31.0,-100.00,North,0,1.0,5.0,97,-99.99,,,-99.99,,2013-02-25 02:01:00,
2013-02-24 21:11:00,32.0,31.0,-100.00,South,180,2.0,7.0,97,-99.99,,,-99.99,,2013-02-25 02:11:00,
2013-02-24 21:21:00,32.0,31.0,-100.00,North,0,0.0,8.0,97,-99.99,,,-99.99,,2013-02-25 02:21:00,
2013-02-24 21:32:00,32.0,31.0,-100.00,SSE,165,2.0,6.0,97,-99.99,,,-99.99,,2013-02-25 02:32:00,
2013-02-24 21:42:00,32.0,31.0,-100.00,North,0,0.0,2.0,97,-99.99,,,-99.99,,2013-02-25 02:42:00,
2013-02-24 21:52:00,32.0,31.0,-100.00,North,0,0.0,0.0,98,-99.99,,,-99.99,,2013-02-25 02:52:00,
2013-02-24 22:02:00,32.0,31.0,-100.00,North,0,0.0,0.0,97,-99.99,,,-99.99,,2013-02-25 03:02:00,
2013-02-24 22:10:00,31.0,31.0,-100.00,North,0,0.0,0.0,98,-99.99,,,-99.99,,2013-02-25 03:10:00,
2013-02-24 22:11:00,31.0,31.0,-100.00,North,0,0.0,0.0,98,-99.99,,,-99.99,,2013-02-25 03:11:00,
2013-02-24 22:21:00,31.0,31.0,-100.00,North,0,0.0,0.0,97,-99.99,,,-99.99,,2013-02-25 03:21:00,
2013-02-24 22:32:00,31.0,31.0,-100.00,North,0,0.0,0.0,98,-99.99,,,-99.99,,2013-02-25 03:32:00,
2013-02-24 22:42:00,31.0,31.0,-100.00,North,0,0.0,0.0,98,-99.99,,,-99.99,,2013-02-25 03:42:00,
2013-02-24 22:52:00,31.0,31.0,-100.00,North,0,0.0,0.0,98,-99.99,,,-99.99,,2013-02-25 03:52:00,
2013-02-24 23:02:00,31.0,31.0,-100.00,North,0,0.0,0.0,98,-99.99,,,-99.99,,2013-02-25 04:02:00,
2013-02-24 23:42:00,31.0,31.0,-100.00,North,0,0.0,0.0,98,-99.99,,,-99.99,,2013-02-25 04:42:00,
2013-02-24 23:52:00,31.0,31.0,-100.00,North,0,0.0,0.0,97,-99.99,,,-99.99,,2013-02-25 04:52:00,